EW7074 Weather Reports


Display with metric or nautical units.
time (UTC)temp
F
wind
direction
speed
MPH
gust
MPH
rain 1hr
in
rain 24hr
in
rain mn
in
humidity
%
barometer
mb
20260504190534 68 86 0.0 3.0 0.04 0.04 0.04 89 1013.3
20260504190022 68 79 0.0 5.0 0.04 0.04 0.04 89 1013.3
20260504185510 69 87 0.0 5.0 0.04 0.04 0.04 88 1013.3
20260504184958 69 62 0.0 3.0 0.04 0.04 0.04 88 1013.4
20260504183427 69 62 0.0 0.0 0.04 0.04 0.04 86 1013.6
20260504183150 70 39 0.0 0.0 0.04 0.04 0.04 85 1013.6
20260504182406 70 39 0.0 0.0 0.03 0.03 0.03 85 1013.8
20260504181854 70 39 0.0 2.0 0.03 0.03 0.03 84 1013.7
20260504181338 71 308 0.0 2.0 0.01 0.01 0.01 83 1013.8
20260504180828 71 302 0.0 3.0 0.00 0.00 0.00 82 1013.9
20260504180548 71 308 0.0 4.0 0.00 0.00 0.00 81 1013.9
20260504175808 72 18 0.0 4.0 0.00 0.00 0.00 80 1013.8
20260504175254 72 145 0.0 0.0 0.00 0.00 0.00 79 1013.7
20260504174752 72 143 0.0 0.0 0.00 0.00 0.00 78 1013.6
20260504174252 72 144 0.0 0.0 0.00 0.00 0.00 77 1013.6
20260504173247 72 144 0.0 0.0 0.00 0.00 0.00 77 1013.6
20260504172747 72 144 0.0 0.0 0.00 0.00 0.00 77 1013.7
20260504172247 72 144 0.0 0.0 0.00 0.00 0.00 76 1013.7
20260504172138 73 137 0.0 0.0 0.00 0.00 0.00 76 1013.7
20260504172030 72 144 0.0 0.0 0.00 0.00 0.00 76 1013.8
20260504171013 73 134 0.0 0.0 0.00 0.00 0.00 75 1013.6
20260504170239 73 129 0.0 0.0 0.00 0.00 0.00 75 1013.6
20260504160231 74 230 0.0 0.0 0.00 0.00 0.00 73 1014.5
20260504150946 74 236 0.0 3.0 0.00 0.00 0.00 72 1015.0
20260504150212 73 237 1.0 3.0 0.00 0.00 0.00 72 1015.1
20260504141154 67 210 0.0 2.0 0.00 0.00 0.00 80 1015.7
20260504140652 67 209 0.0 2.0 0.00 0.00 0.00 80 1015.8
20260504140426 67 210 0.0 2.0 0.00 0.00 0.00 80 1015.8
20260504140302 66 212 0.0 1.0 0.00 0.00 0.00 80 1015.9
20260504130643 60 219 0.0 1.0 0.00 0.00 0.00 88 1016.2
20260504130139 59 219 0.0 2.0 0.00 0.00 0.00 89 1016.3
20260504110304 49 83 0.0 0.0 0.00 0.00 0.00 93 1015.8
20260504100413 48 83 0.0 0.0 0.00 0.00 0.00 92 1015.8
20260504081949 48 81 1.0 3.0 0.00 0.00 0.00 92 1015.6
20260504081425 48 81 2.0 3.0 0.00 0.00 0.00 92 1015.6
20260504080923 48 81 1.0 3.0 0.00 0.00 0.00 92 1015.6
20260504080423 48 81 0.0 3.0 0.00 0.00 0.00 92 1015.7
20260504070409 48 81 1.0 3.0 0.00 0.00 0.00 92 1015.6
20260504050315 49 81 0.0 0.0 0.00 0.00 0.00 91 1016.9
20260504045310 49 81 0.0 2.0 0.00 0.00 0.00 91 1017.0
20260504044749 49 81 0.0 0.0 0.00 0.00 0.00 91 1017.1
20260504044249 49 81 0.0 0.0 0.00 0.00 0.00 91 1017.0
20260504043228 49 81 0.0 2.0 0.00 0.00 0.00 91 1017.1
20260504042718 49 81 0.0 0.0 0.00 0.00 0.00 91 1017.1
20260504042438 49 81 0.0 0.0 0.00 0.00 0.00 91 1017.3
20260504041659 49 81 1.0 2.0 0.00 0.00 0.00 91 1017.4
20260504041418 49 81 1.0 3.0 0.00 0.00 0.00 91 1017.4
20260504040638 49 81 1.0 3.0 0.00 0.00 0.00 91 1017.3
20260504040127 49 81 1.0 3.0 0.00 0.00 0.00 91 1017.4
20260504035849 49 81 2.0 3.0 0.00 0.00 0.00 91 1017.4
20260504035104 49 81 1.0 3.0 0.00 0.00 0.00 91 1017.4
20260504034551 49 81 1.0 3.0 0.00 0.00 0.00 91 1017.6
20260504034042 49 81 1.0 3.0 0.00 0.00 0.00 91 1017.6
20260504033531 49 81 1.0 3.0 0.00 0.00 0.00 91 1017.6
20260504033022 49 81 0.0 0.0 0.00 0.00 0.00 91 1017.7
20260504032515 49 81 0.0 0.0 0.00 0.00 0.00 91 1017.9
20260504031956 49 81 0.0 3.0 0.00 0.00 0.00 91 1017.9
20260504031445 50 81 0.0 3.0 0.00 0.00 0.00 91 1017.9
20260504030948 50 81 1.0 3.0 0.00 0.00 0.00 91 1017.9
20260504030441 50 81 1.0 3.0 0.00 0.00 0.00 91 1017.9
20260504025927 50 81 1.0 3.0 0.00 0.00 0.00 91 1017.9
20260504025427 50 81 1.0 3.0 0.00 0.00 0.00 91 1018.0
20260504024924 50 81 1.0 3.0 0.00 0.00 0.00 91 1018.0
20260504024653 50 81 1.0 3.0 0.00 0.00 0.00 90 1017.9
20260504023920 50 81 1.0 3.0 0.00 0.00 0.00 91 1018.0
20260504023420 50 81 1.0 3.0 0.00 0.00 0.00 91 1018.1
20260504022920 50 81 1.0 3.0 0.00 0.00 0.00 90 1018.2
20260504022419 50 81 1.0 3.0 0.00 0.00 0.00 90 1018.3
20260504021917 51 85 1.0 3.0 0.00 0.00 0.00 90 1018.3
20260504021416 50 85 1.0 3.0 0.00 0.00 0.00 90 1018.3
20260504020915 50 85 0.0 3.0 0.00 0.00 0.00 90 1018.4
20260504020645 51 85 1.0 2.0 0.00 0.00 0.00 90 1018.5
20260504015927 51 85 2.0 3.0 0.00 0.00 0.00 90 1018.5
20260504015644 51 85 2.0 3.0 0.00 0.00 0.00 90 1018.5
20260504014913 51 85 2.0 4.0 0.00 0.00 0.00 90 1018.6
20260504014413 51 85 2.0 4.0 0.00 0.00 0.00 90 1018.5
20260504013910 51 85 1.0 3.0 0.00 0.00 0.00 89 1018.7
20260504013409 51 85 2.0 3.0 0.00 0.00 0.00 89 1018.7
20260504012911 52 85 1.0 3.0 0.00 0.00 0.00 89 1018.8
20260504012403 52 85 1.0 3.0 0.00 0.00 0.00 89 1018.9
20260504011858 52 85 1.0 3.0 0.00 0.00 0.00 89 1018.9
20260504011358 52 85 1.0 3.0 0.00 0.00 0.00 90 1018.9
20260504010858 52 85 0.0 3.0 0.00 0.00 0.00 89 1018.8
20260504010351 52 85 0.0 2.0 0.00 0.00 0.00 89 1018.9
20260504005846 53 85 0.0 2.0 0.00 0.00 0.00 89 1018.9
20260504005344 53 85 1.0 3.0 0.00 0.00 0.00 89 1019.0
20260504005337 53 86 1.0 3.0 0.00 0.00 0.00 89 1019.1
20260504004334 53 85 0.0 2.0 0.00 0.00 0.00 89 1019.0
20260504003827 53 85 0.0 2.0 0.00 0.00 0.00 89 1018.9
20260504002821 53 85 0.0 2.0 0.00 0.00 0.00 88 1018.7
20260504002313 53 85 1.0 2.0 0.00 0.00 0.00 89 1018.5
20260504001807 53 85 1.0 5.0 0.00 0.00 0.00 89 1018.3
20260504001532 53 85 2.0 5.0 0.00 0.00 0.00 89 1018.3
20260504001021 53 79 2.0 4.0 0.00 0.00 0.00 88 1018.3
20260504000246 53 77 1.0 4.0 0.00 0.00 0.00 88 1018.5
20260503235737 53 73 0.0 0.0 0.00 0.00 0.00 88 1018.4
20260503235227 53 79 0.0 0.0 0.00 0.00 0.00 88 1018.7
20260503234716 53 79 0.0 0.0 0.00 0.00 0.00 88 1018.8
20260503234207 53 79 0.0 0.0 0.00 0.00 0.00 87 1018.7
20260503233657 54 79 0.0 0.0 0.00 0.00 0.00 87 1018.8
20260503233417 54 79 0.0 0.0 0.00 0.00 0.00 86 1018.7
20260503232910 54 79 0.0 0.0 0.00 0.00 0.00 86 1018.7
20260503232128 54 79 0.0 0.0 0.00 0.00 0.00 86 1018.6
20260503231622 54 79 0.0 0.0 0.00 0.00 0.00 85 1018.7
20260503231120 55 79 0.0 0.0 0.00 0.00 0.00 85 1018.7
20260503230609 55 79 0.0 0.0 0.00 0.00 0.00 85 1018.7
20260503230057 55 77 0.0 0.0 0.00 0.00 0.00 84 1018.9
20260503225816 55 77 0.0 0.0 0.00 0.00 0.00 84 1018.9
20260503225037 56 77 0.0 0.0 0.00 0.00 0.00 83 1018.9
20260503224753 56 77 0.0 0.0 0.00 0.00 0.00 83 1018.9
20260503224010 56 77 0.0 0.0 0.00 0.00 0.00 82 1018.8
20260503223502 57 77 0.0 0.0 0.00 0.00 0.00 81 1018.8
20260503222441 58 77 0.0 0.0 0.00 0.00 0.00 80 1018.7
20260503221931 58 77 0.0 0.0 0.00 0.00 0.00 79 1018.8
20260503221420 58 77 0.0 0.0 0.00 0.00 0.00 78 1018.8
20260503220912 59 77 0.0 0.0 0.00 0.00 0.00 77 1018.8
20260503220636 59 77 0.0 0.0 0.00 0.00 0.00 76 1018.8
20260503215848 59 77 0.0 0.0 0.00 0.00 0.00 75 1018.8
20260503215838 60 77 0.0 0.0 0.00 0.00 0.00 74 1018.9
20260503215055 60 77 0.0 0.0 0.00 0.00 0.00 73 1018.8
20260503214316 61 77 0.0 0.0 0.00 0.00 0.00 72 1018.7
20260503213804 61 77 0.0 0.0 0.00 0.00 0.00 71 1018.8
20260503213253 62 77 0.0 0.0 0.00 0.00 0.00 70 1018.9
20260503212741 62 77 0.0 0.0 0.00 0.00 0.00 68 1018.8
20260503212230 63 77 0.0 0.0 0.00 0.00 0.00 67 1018.8
20260503211721 63 77 0.0 0.0 0.00 0.00 0.00 66 1018.8
20260503211211 63 77 0.0 0.0 0.00 0.00 0.00 64 1018.8
20260503210938 64 112 0.0 0.0 0.00 0.00 0.00 63 1018.9
20260503210205 64 139 0.0 0.0 0.00 0.00 0.00 63 1018.8
20260503205934 64 129 0.0 2.0 0.00 0.00 0.00 62 1018.8
20260503205201 64 131 0.0 2.0 0.00 0.00 0.00 62 1019.0
20260503204657 65 121 0.0 2.0 0.00 0.00 0.00 61 1019.0
20260503204158 65 126 0.0 4.0 0.00 0.00 0.00 61 1019.0
20260503203655 65 113 0.0 4.0 0.00 0.00 0.00 60 1019.1
20260503203153 65 135 0.0 4.0 0.00 0.00 0.00 60 1019.1
20260503202654 65 116 0.0 3.0 0.00 0.00 0.00 60 1019.0
20260503202150 65 153 1.0 4.0 0.00 0.00 0.00 59 1019.0
20260503201921 66 93 1.0 5.0 0.00 0.00 0.00 59 1019.1
20260503201149 66 135 1.0 8.0 0.00 0.00 0.00 58 1019.1
20260503200920 66 130 1.0 8.0 0.00 0.00 0.00 58 1019.2
20260503200147 66 119 1.0 6.0 0.00 0.00 0.00 57 1019.2
20260503195916 67 128 1.0 5.0 0.00 0.00 0.00 57 1019.3
20260503195151 67 100 1.0 5.0 0.00 0.00 0.00 57 1019.2
20260503194645 67 82 1.0 6.0 0.00 0.00 0.00 57 1019.3
20260503194143 67 124 2.0 6.0 0.00 0.00 0.00 57 1019.3
20260503193644 67 96 1.0 6.0 0.00 0.00 0.00 57 1019.2
20260503193141 67 146 1.0 6.0 0.00 0.00 0.00 57 1019.2
20260503192911 68 89 1.0 6.0 0.00 0.00 0.00 56 1019.2
20260503192139 68 131 1.0 4.0 0.00 0.00 0.00 56 1019.1
20260503191639 68 141 1.0 4.0 0.00 0.00 0.00 55 1019.2
20260503191140 68 118 1.0 4.0 0.00 0.00 0.00 55 1019.3